Time,TemperatureF,DewpointF,PressureIn,WindDirection,WindDirectionDegrees,WindSpeedMPH,WindSpeedGustMPH,Humidity,HourlyPrecipIn,Conditions,Clouds,dailyrainin,SoftwareType,DateUTC
2013-02-10 00:01:00,7.0,7.0,-100.00,West,279,6.0,15.0,100,-99.99,,,-99.99,,2013-02-10 07:01:00,
2013-02-10 00:11:00,7.0,7.0,-100.00,West,279,6.0,15.0,100,-99.99,,,-99.99,,2013-02-10 07:11:00,
2013-02-10 00:21:00,7.0,7.0,-100.00,WNW,292,5.0,14.0,100,-99.99,,,-99.99,,2013-02-10 07:21:00,
2013-02-10 00:31:00,7.0,7.0,-100.00,West,281,6.0,14.0,100,-99.99,,,-99.99,,2013-02-10 07:31:00,
2013-02-10 00:41:00,7.0,7.0,-100.00,West,281,6.0,14.0,100,-99.99,,,-99.99,,2013-02-10 07:41:00,
2013-02-10 00:52:00,7.0,7.0,-100.00,West,279,8.0,18.0,100,-99.99,,,-99.99,,2013-02-10 07:52:00,
2013-02-10 01:01:00,7.0,7.0,-100.00,West,272,13.0,22.0,100,-99.99,,,-99.99,,2013-02-10 08:01:00,
2013-02-10 01:11:00,7.0,7.0,-100.00,West,272,13.0,22.0,100,-99.99,,,-99.99,,2013-02-10 08:11:00,
2013-02-10 01:21:00,7.0,7.0,-100.00,West,281,8.0,21.0,100,-99.99,,,-99.99,,2013-02-10 08:21:00,
2013-02-10 01:31:00,7.0,7.0,-100.00,West,279,5.0,15.0,100,-99.99,,,-99.99,,2013-02-10 08:31:00,
2013-02-10 01:43:00,7.0,7.0,-100.00,West,279,5.0,15.0,100,-99.99,,,-99.99,,2013-02-10 08:43:00,
2013-02-10 01:52:00,7.0,7.0,-100.00,WNW,283,3.0,10.0,100,-99.99,,,-99.99,,2013-02-10 08:52:00,
2013-02-10 02:02:00,7.0,7.0,-100.00,West,280,4.0,12.0,100,-99.99,,,-99.99,,2013-02-10 09:02:00,
2013-02-10 02:11:00,7.0,7.0,-100.00,West,280,4.0,12.0,100,-99.99,,,-99.99,,2013-02-10 09:11:00,
2013-02-10 02:21:00,8.0,8.0,-100.00,WNW,282,4.0,9.0,100,-99.99,,,-99.99,,2013-02-10 09:21:00,
2013-02-10 02:31:00,7.0,7.0,-100.00,WNW,287,5.0,11.0,100,-99.99,,,-99.99,,2013-02-10 09:31:00,
2013-02-10 02:41:00,7.0,7.0,-100.00,WNW,287,5.0,11.0,100,-99.99,,,-99.99,,2013-02-10 09:41:00,
2013-02-10 02:52:00,7.0,7.0,-100.00,WNW,287,5.0,13.0,100,-99.99,,,-99.99,,2013-02-10 09:52:00,
2013-02-10 03:01:00,7.0,7.0,-100.00,WNW,288,5.0,10.0,100,-99.99,,,-99.99,,2013-02-10 10:01:00,
2013-02-10 03:11:00,7.0,7.0,-100.00,WNW,288,5.0,10.0,100,-99.99,,,-99.99,,2013-02-10 10:11:00,
2013-02-10 03:21:00,7.0,7.0,-100.00,WNW,285,3.0,10.0,100,-99.99,,,-99.99,,2013-02-10 10:21:00,
2013-02-10 03:31:00,7.0,7.0,-100.00,WNW,301,2.0,7.0,100,-99.99,,,-99.99,,2013-02-10 10:31:00,
2013-02-10 03:41:00,7.0,7.0,-100.00,WNW,301,2.0,7.0,100,-99.99,,,-99.99,,2013-02-10 10:41:00,
2013-02-10 03:52:00,7.0,7.0,-100.00,WNW,301,3.0,9.0,100,-99.99,,,-99.99,,2013-02-10 10:52:00,
2013-02-10 04:01:00,6.0,6.0,-100.00,WNW,287,2.0,6.0,100,-99.99,,,-99.99,,2013-02-10 11:01:00,
2013-02-10 04:11:00,6.0,6.0,-100.00,WNW,287,2.0,6.0,100,-99.99,,,-99.99,,2013-02-10 11:11:00,
2013-02-10 04:21:00,7.0,7.0,-100.00,NW,305,3.0,8.0,100,-99.99,,,-99.99,,2013-02-10 11:21:00,
2013-02-10 04:32:00,7.0,7.0,-100.00,WNW,294,3.0,6.0,100,-99.99,,,-99.99,,2013-02-10 11:32:00,
2013-02-10 04:42:00,7.0,7.0,-100.00,WNW,294,3.0,6.0,100,-99.99,,,-99.99,,2013-02-10 11:42:00,
2013-02-10 04:52:00,7.0,7.0,-100.00,WNW,294,2.0,4.0,100,-99.99,,,-99.99,,2013-02-10 11:52:00,
2013-02-10 05:01:00,6.0,6.0,-100.00,WNW,293,3.0,8.0,100,-99.99,,,-99.99,,2013-02-10 12:01:00,
2013-02-10 05:12:00,6.0,6.0,-100.00,WNW,293,3.0,8.0,100,-99.99,,,-99.99,,2013-02-10 12:12:00,
2013-02-10 05:21:00,6.0,6.0,-100.00,WNW,293,2.0,7.0,100,-99.99,,,-99.99,,2013-02-10 12:21:00,
2013-02-10 05:32:00,5.0,5.0,-100.00,WNW,292,3.0,7.0,100,-99.99,,,-99.99,,2013-02-10 12:32:00,
2013-02-10 05:41:00,5.0,5.0,-100.00,WNW,292,3.0,7.0,100,-99.99,,,-99.99,,2013-02-10 12:41:00,
2013-02-10 05:52:00,6.0,6.0,-100.00,WNW,292,3.0,7.0,100,-99.99,,,-99.99,,2013-02-10 12:52:00,
2013-02-10 06:02:00,6.0,6.0,-100.00,WNW,292,3.0,8.0,100,-99.99,,,-99.99,,2013-02-10 13:02:00,
2013-02-10 06:11:00,6.0,6.0,-100.00,WNW,292,3.0,8.0,100,-99.99,,,-99.99,,2013-02-10 13:11:00,
2013-02-10 06:21:00,6.0,6.0,-100.00,WNW,297,2.0,7.0,100,-99.99,,,-99.99,,2013-02-10 13:21:00,
2013-02-10 06:31:00,6.0,6.0,-100.00,WNW,297,2.0,7.0,100,-99.99,,,-99.99,,2013-02-10 13:31:00,
2013-02-10 06:41:00,6.0,6.0,-100.00,WNW,297,2.0,7.0,100,-99.99,,,-99.99,,2013-02-10 13:41:00,
2013-02-10 06:52:00,6.0,6.0,-100.00,WNW,293,3.0,7.0,100,-99.99,,,-99.99,,2013-02-10 13:52:00,
2013-02-10 07:02:00,5.0,5.0,-100.00,NW,313,3.0,8.0,100,-99.99,,,-99.99,,2013-02-10 14:02:00,
2013-02-10 07:11:00,5.0,5.0,-100.00,NW,313,3.0,8.0,100,-99.99,,,-99.99,,2013-02-10 14:11:00,
2013-02-10 07:21:00,5.0,5.0,-100.00,West,274,2.0,8.0,100,-99.99,,,-99.99,,2013-02-10 14:21:00,
2013-02-10 07:31:00,5.0,5.0,-100.00,West,274,2.0,8.0,100,-99.99,,,-99.99,,2013-02-10 14:31:00,
2013-02-10 07:41:00,5.0,5.0,-100.00,West,274,2.0,8.0,100,-99.99,,,-99.99,,2013-02-10 14:41:00,
2013-02-10 07:52:00,5.0,5.0,-100.00,WNW,294,3.0,7.0,100,-99.99,,,-99.99,,2013-02-10 14:52:00,
2013-02-10 08:01:00,5.0,5.0,-100.00,WNW,283,2.0,6.0,100,-99.99,,,-99.99,,2013-02-10 15:01:00,
2013-02-10 08:11:00,5.0,5.0,-100.00,WNW,283,2.0,6.0,100,-99.99,,,-99.99,,2013-02-10 15:11:00,
2013-02-10 08:21:00,6.0,6.0,-100.00,WNW,296,2.0,7.0,100,-99.99,,,-99.99,,2013-02-10 15:21:00,
2013-02-10 08:31:00,8.0,8.0,-100.00,WNW,293,2.0,7.0,100,-99.99,,,-99.99,,2013-02-10 15:31:00,
2013-02-10 08:41:00,8.0,8.0,-100.00,WNW,293,2.0,7.0,100,-99.99,,,-99.99,,2013-02-10 15:41:00,
2013-02-10 08:52:00,11.0,11.0,-100.00,WNW,299,2.0,6.0,100,-99.99,,,-99.99,,2013-02-10 15:52:00,
2013-02-10 09:01:00,11.0,11.0,-100.00,WNW,301,3.0,8.0,100,-99.99,,,-99.99,,2013-02-10 16:01:00,
2013-02-10 09:11:00,11.0,11.0,-100.00,WNW,301,3.0,8.0,100,-99.99,,,-99.99,,2013-02-10 16:11:00,
2013-02-10 09:21:00,13.0,13.0,-100.00,WNW,297,3.0,6.0,100,-99.99,,,-99.99,,2013-02-10 16:21:00,
2013-02-10 09:31:00,15.0,15.0,-100.00,NW,304,2.0,7.0,100,-99.99,,,-99.99,,2013-02-10 16:31:00,
2013-02-10 09:42:00,15.0,15.0,-100.00,NW,304,2.0,7.0,100,-99.99,,,-99.99,,2013-02-10 16:42:00,
2013-02-10 09:52:00,15.0,15.0,-100.00,NW,310,2.0,8.0,100,-99.99,,,-99.99,,2013-02-10 16:52:00,
2013-02-10 10:01:00,15.0,15.0,-100.00,NW,310,3.0,8.0,100,-99.99,,,-99.99,,2013-02-10 17:01:00,
2013-02-10 10:11:00,15.0,15.0,-100.00,NW,310,3.0,8.0,100,-99.99,,,-99.99,,2013-02-10 17:11:00,
2013-02-10 10:21:00,17.0,17.0,-100.00,NW,318,5.0,9.0,100,-99.99,,,-99.99,,2013-02-10 17:21:00,
2013-02-10 10:32:00,18.0,18.0,-100.00,NW,311,3.0,7.0,100,-99.99,,,-99.99,,2013-02-10 17:32:00,
2013-02-10 10:42:00,18.0,18.0,-100.00,NW,311,3.0,7.0,100,-99.99,,,-99.99,,2013-02-10 17:42:00,
2013-02-10 10:52:00,18.0,18.0,-100.00,WNW,300,3.0,7.0,100,-99.99,,,-99.99,,2013-02-10 17:52:00,
2013-02-10 11:01:00,16.0,16.0,-100.00,NW,310,3.0,7.0,100,-99.99,,,-99.99,,2013-02-10 18:01:00,
2013-02-10 11:11:00,16.0,16.0,-100.00,NW,310,3.0,7.0,100,-99.99,,,-99.99,,2013-02-10 18:11:00,
2013-02-10 11:21:00,17.0,17.0,-100.00,NW,313,4.0,8.0,100,-99.99,,,-99.99,,2013-02-10 18:21:00,
2013-02-10 11:31:00,18.0,18.0,-100.00,NW,321,3.0,6.0,100,-99.99,,,-99.99,,2013-02-10 18:31:00,
2013-02-10 11:42:00,18.0,18.0,-100.00,NW,321,3.0,6.0,100,-99.99,,,-99.99,,2013-02-10 18:42:00,
2013-02-10 11:52:00,17.0,17.0,-100.00,NNW,340,3.0,6.0,100,-99.99,,,-99.99,,2013-02-10 18:52:00,
2013-02-10 12:01:00,16.0,16.0,-100.00,NNW,343,3.0,6.0,100,-99.99,,,-99.99,,2013-02-10 19:01:00,
2013-02-10 12:11:00,16.0,16.0,-100.00,NNW,343,3.0,6.0,100,-99.99,,,-99.99,,2013-02-10 19:11:00,
2013-02-10 12:21:00,18.0,18.0,-100.00,NW,323,4.0,8.0,100,-99.99,,,-99.99,,2013-02-10 19:21:00,
2013-02-10 12:32:00,18.0,18.0,-100.00,NNW,334,4.0,9.0,100,-99.99,,,-99.99,,2013-02-10 19:32:00,
2013-02-10 12:42:00,18.0,18.0,-100.00,NNW,334,4.0,9.0,100,-99.99,,,-99.99,,2013-02-10 19:42:00,
2013-02-10 12:52:00,16.0,16.0,-100.00,North,354,4.0,8.0,100,-99.99,,,-99.99,,2013-02-10 19:52:00,
2013-02-10 13:01:00,14.0,14.0,-100.00,North,358,4.0,8.0,100,-99.99,,,-99.99,,2013-02-10 20:01:00,
2013-02-10 13:11:00,14.0,14.0,-100.00,North,358,4.0,8.0,100,-99.99,,,-99.99,,2013-02-10 20:11:00,
2013-02-10 13:21:00,14.0,14.0,-100.00,North,358,5.0,11.0,100,-99.99,,,-99.99,,2013-02-10 20:21:00,
2013-02-10 13:32:00,16.0,16.0,-100.00,North,349,6.0,11.0,100,-99.99,,,-99.99,,2013-02-10 20:32:00,
2013-02-10 13:42:00,16.0,16.0,-100.00,North,349,6.0,11.0,100,-99.99,,,-99.99,,2013-02-10 20:42:00,
2013-02-10 13:52:00,17.0,17.0,-100.00,NNW,346,6.0,10.0,100,-99.99,,,-99.99,,2013-02-10 20:52:00,
2013-02-10 14:02:00,16.0,16.0,-100.00,NNW,348,6.0,10.0,100,-99.99,,,-99.99,,2013-02-10 21:02:00,
2013-02-10 14:11:00,16.0,16.0,-100.00,NNW,348,6.0,10.0,100,-99.99,,,-99.99,,2013-02-10 21:11:00,
2013-02-10 14:21:00,16.0,16.0,-100.00,NNW,338,6.0,9.0,100,-99.99,,,-99.99,,2013-02-10 21:21:00,
2013-02-10 14:32:00,18.0,18.0,-100.00,NNW,335,6.0,10.0,100,-99.99,,,-99.99,,2013-02-10 21:32:00,
2013-02-10 14:42:00,18.0,18.0,-100.00,NNW,335,6.0,10.0,100,-99.99,,,-99.99,,2013-02-10 21:42:00,
2013-02-10 14:52:00,17.0,17.0,-100.00,NNW,335,6.0,10.0,100,-99.99,,,-99.99,,2013-02-10 21:52:00,
2013-02-10 15:01:00,17.0,17.0,-100.00,NNW,334,7.0,10.0,100,-99.99,,,-99.99,,2013-02-10 22:01:00,
2013-02-10 15:11:00,17.0,17.0,-100.00,NNW,334,7.0,10.0,100,-99.99,,,-99.99,,2013-02-10 22:11:00,
2013-02-10 15:21:00,18.0,18.0,-100.00,NNW,338,7.0,10.0,100,-99.99,,,-99.99,,2013-02-10 22:21:00,
2013-02-10 15:31:00,14.0,14.0,-100.00,NNW,341,7.0,11.0,100,-99.99,,,-99.99,,2013-02-10 22:31:00,
2013-02-10 15:42:00,14.0,14.0,-100.00,NNW,341,7.0,11.0,100,-99.99,,,-99.99,,2013-02-10 22:42:00,
2013-02-10 15:52:00,13.0,13.0,-100.00,NNW,333,6.0,9.0,100,-99.99,,,-99.99,,2013-02-10 22:52:00,
2013-02-10 16:01:00,14.0,14.0,-100.00,NNW,339,6.0,9.0,100,-99.99,,,-99.99,,2013-02-10 23:01:00,
2013-02-10 16:11:00,14.0,14.0,-100.00,NNW,339,6.0,9.0,100,-99.99,,,-99.99,,2013-02-10 23:11:00,
2013-02-10 16:21:00,15.0,15.0,-100.00,NNW,333,6.0,10.0,100,-99.99,,,-99.99,,2013-02-10 23:21:00,
2013-02-10 16:31:00,15.0,15.0,-100.00,NNW,327,6.0,9.0,100,-99.99,,,-99.99,,2013-02-10 23:31:00,
2013-02-10 16:42:00,15.0,15.0,-100.00,NNW,327,6.0,9.0,100,-99.99,,,-99.99,,2013-02-10 23:42:00,
2013-02-10 16:52:00,14.0,14.0,-100.00,NW,323,6.0,9.0,100,-99.99,,,-99.99,,2013-02-10 23:52:00,
2013-02-10 17:01:00,13.0,13.0,-100.00,NW,316,6.0,9.0,100,-99.99,,,-99.99,,2013-02-11 00:01:00,
2013-02-10 17:11:00,13.0,13.0,-100.00,NW,316,6.0,9.0,100,-99.99,,,-99.99,,2013-02-11 00:11:00,
2013-02-10 17:22:00,13.0,13.0,-100.00,NW,310,4.0,8.0,100,-99.99,,,-99.99,,2013-02-11 00:22:00,
2013-02-10 17:31:00,12.0,12.0,-100.00,NW,310,4.0,7.0,100,-99.99,,,-99.99,,2013-02-11 00:31:00,
2013-02-10 17:42:00,12.0,12.0,-100.00,NW,310,4.0,7.0,100,-99.99,,,-99.99,,2013-02-11 00:42:00,
2013-02-10 17:52:00,11.0,11.0,-100.00,NW,309,5.0,8.0,100,-99.99,,,-99.99,,2013-02-11 00:52:00,
2013-02-10 18:01:00,9.0,9.0,-100.00,WNW,291,3.0,6.0,100,-99.99,,,-99.99,,2013-02-11 01:01:00,
2013-02-10 18:11:00,9.0,9.0,-100.00,WNW,291,3.0,6.0,100,-99.99,,,-99.99,,2013-02-11 01:11:00,
2013-02-10 18:21:00,7.0,7.0,-100.00,West,281,3.0,6.0,100,-99.99,,,-99.99,,2013-02-11 01:21:00,
2013-02-10 18:32:00,7.0,7.0,-100.00,West,281,3.0,6.0,100,-99.99,,,-99.99,,2013-02-11 01:32:00,
2013-02-10 18:41:00,7.0,7.0,-100.00,West,281,3.0,6.0,100,-99.99,,,-99.99,,2013-02-11 01:41:00,
2013-02-10 18:52:00,7.0,7.0,-100.00,WNW,291,4.0,7.0,100,-99.99,,,-99.99,,2013-02-11 01:52:00,
2013-02-10 19:01:00,7.0,7.0,-100.00,WNW,300,2.0,5.0,100,-99.99,,,-99.99,,2013-02-11 02:01:00,
2013-02-10 19:11:00,7.0,7.0,-100.00,WNW,300,2.0,5.0,100,-99.99,,,-99.99,,2013-02-11 02:11:00,
2013-02-10 19:21:00,7.0,7.0,-100.00,WNW,292,4.0,8.0,100,-99.99,,,-99.99,,2013-02-11 02:21:00,
2013-02-10 19:31:00,6.0,6.0,-100.00,WNW,302,3.0,6.0,100,-99.99,,,-99.99,,2013-02-11 02:31:00,
2013-02-10 19:42:00,6.0,6.0,-100.00,WNW,302,3.0,6.0,100,-99.99,,,-99.99,,2013-02-11 02:42:00,
2013-02-10 19:52:00,6.0,6.0,-100.00,WNW,290,3.0,5.0,100,-99.99,,,-99.99,,2013-02-11 02:52:00,
2013-02-10 20:01:00,7.0,7.0,-100.00,WNW,294,5.0,8.0,100,-99.99,,,-99.99,,2013-02-11 03:01:00,
2013-02-10 20:11:00,7.0,7.0,-100.00,WNW,294,5.0,8.0,100,-99.99,,,-99.99,,2013-02-11 03:11:00,
2013-02-10 20:21:00,7.0,7.0,-100.00,WNW,296,6.0,9.0,100,-99.99,,,-99.99,,2013-02-11 03:21:00,
2013-02-10 20:31:00,6.0,6.0,-100.00,WNW,303,6.0,8.0,100,-99.99,,,-99.99,,2013-02-11 03:31:00,
2013-02-10 20:41:00,6.0,6.0,-100.00,WNW,303,6.0,8.0,100,-99.99,,,-99.99,,2013-02-11 03:41:00,
2013-02-10 20:52:00,6.0,6.0,-100.00,WNW,292,5.0,7.0,100,-99.99,,,-99.99,,2013-02-11 03:52:00,
2013-02-10 21:01:00,7.0,7.0,-100.00,WNW,297,5.0,7.0,100,-99.99,,,-99.99,,2013-02-11 04:01:00,
2013-02-10 21:11:00,7.0,7.0,-100.00,WNW,297,5.0,7.0,100,-99.99,,,-99.99,,2013-02-11 04:11:00,
2013-02-10 21:21:00,7.0,7.0,-100.00,WNW,300,6.0,8.0,100,-99.99,,,-99.99,,2013-02-11 04:21:00,
2013-02-10 21:31:00,7.0,7.0,-100.00,NW,305,5.0,7.0,100,-99.99,,,-99.99,,2013-02-11 04:31:00,
2013-02-10 21:41:00,7.0,7.0,-100.00,NW,305,5.0,7.0,100,-99.99,,,-99.99,,2013-02-11 04:41:00,
2013-02-10 21:52:00,7.0,7.0,-100.00,WNW,295,4.0,7.0,100,-99.99,,,-99.99,,2013-02-11 04:52:00,
2013-02-10 22:01:00,7.0,7.0,-100.00,WNW,299,4.0,6.0,100,-99.99,,,-99.99,,2013-02-11 05:01:00,
2013-02-10 22:11:00,7.0,7.0,-100.00,WNW,299,4.0,6.0,100,-99.99,,,-99.99,,2013-02-11 05:11:00,
2013-02-10 22:22:00,7.0,7.0,-100.00,NW,304,5.0,6.0,100,-99.99,,,-99.99,,2013-02-11 05:22:00,
2013-02-10 22:31:00,7.0,7.0,-100.00,NW,313,5.0,7.0,100,-99.99,,,-99.99,,2013-02-11 05:31:00,
2013-02-10 22:41:00,7.0,7.0,-100.00,NW,313,5.0,7.0,100,-99.99,,,-99.99,,2013-02-11 05:41:00,
2013-02-10 22:52:00,6.0,6.0,-100.00,NW,306,6.0,7.0,100,-99.99,,,-99.99,,2013-02-11 05:52:00,
2013-02-10 23:01:00,6.0,6.0,-100.00,WNW,302,6.0,7.0,100,-99.99,,,-99.99,,2013-02-11 06:01:00,
2013-02-10 23:11:00,6.0,6.0,-100.00,WNW,302,6.0,7.0,100,-99.99,,,-99.99,,2013-02-11 06:11:00,
2013-02-10 23:21:00,6.0,6.0,-100.00,WNW,302,5.0,7.0,100,-99.99,,,-99.99,,2013-02-11 06:21:00,
2013-02-10 23:32:00,6.0,6.0,-100.00,NW,308,6.0,7.0,100,-99.99,,,-99.99,,2013-02-11 06:32:00,
2013-02-10 23:42:00,6.0,6.0,-100.00,NW,308,6.0,7.0,100,-99.99,,,-99.99,,2013-02-11 06:42:00,
2013-02-10 23:52:00,6.0,6.0,-100.00,NW,308,6.0,8.0,100,-99.99,,,-99.99,,2013-02-11 06:52:00,